KC0KLG Weather Reports


time (UTC)temp
C
wind
direction
speed
KPH
gust
KPH
rain 1hr
cm
rain 24hr
cm
rain mn
cm
humidity
%
barometer
mb
20260503060104 5 146 1.6 4.8 0.00 0.00 0.00 82 1016.6
20260503054547 6 0 1.6 4.8 0.00 0.00 0.00 79 1016.6
20260503054536 6 137 1.6 4.8 0.00 0.00 0.00 79 1014.4
20260503053045 6 117 0.0 4.8 0.00 0.00 0.00 78 1016.6
20260503053034 6 117 0.0 4.8 0.00 0.00 0.00 78 1014.4
20260503051543 6 121 1.6 4.8 0.00 0.00 0.00 76 1016.6
20260503051532 6 121 0.0 4.8 0.00 0.00 0.00 77 1014.4
20260503050050 6 132 3.2 4.8 0.00 0.00 0.00 77 1016.7
20260503050028 6 132 3.2 4.8 0.00 0.00 0.00 77 1014.3
20260503044551 7 107 0.0 3.2 0.00 0.00 0.00 74 1016.7
20260503044527 7 107 0.0 3.2 0.00 0.00 0.00 75 1014.3
20260503043053 7 0 0.0 3.2 0.00 0.00 0.00 72 1016.7
20260503043020 7 107 0.0 3.2 0.00 0.00 0.00 72 1014.3
20260503041547 8 107 0.0 1.6 0.00 0.00 0.00 71 1016.6
20260503041516 8 107 0.0 1.6 0.00 0.00 0.00 71 1014.3
20260503040047 8 0 0.0 4.8 0.00 0.00 0.00 68 1016.5
20260503040010 8 107 1.6 4.8 0.00 0.00 0.00 69 1014.1
20260503034544 9 80 0.0 3.2 0.00 0.00 0.00 68 1016.4
20260503034504 9 80 0.0 3.2 0.00 0.00 0.00 69 1014.0
20260503033108 10 80 0.0 4.8 0.00 0.00 0.00 65 1014.0
20260503033103 10 80 0.0 4.8 0.00 0.00 0.00 65 1016.4
20260503031604 11 119 1.6 4.8 0.00 0.00 0.00 62 1013.8
20260503031548 11 119 1.6 4.8 0.00 0.00 0.00 60 1016.1
20260503030051 12 74 1.6 3.2 0.00 0.00 0.00 56 1013.7
20260503030047 13 74 1.6 3.2 0.00 0.00 0.00 55 1015.8
20260503024551 13 30 0.0 1.6 0.00 0.00 0.00 51 1013.5
20260503024548 13 0 0.0 3.2 0.00 0.00 0.00 50 1015.7
20260503023055 14 5 0.0 4.8 0.00 0.00 0.00 49 1015.5
20260503023049 14 5 0.0 4.8 0.00 0.00 0.00 53 1013.4
20260503021551 16 48 1.6 6.4 0.00 0.00 0.00 41 1015.5
20260503021543 16 48 1.6 6.4 0.00 0.00 0.00 42 1013.4
20260503020048 17 35 3.2 9.7 0.00 0.00 0.00 37 1015.4
20260503020032 17 35 3.2 9.7 0.00 0.00 0.00 37 1013.3
20260503014548 17 58 1.6 9.7 0.00 0.00 0.00 39 1015.5
20260503014526 17 58 1.6 9.7 0.00 0.00 0.00 39 1013.4
20260503013046 17 0 1.6 8.0 0.00 0.00 0.00 37 1015.5
20260503013028 17 32 1.6 6.4 0.00 0.00 0.00 38 1013.3
20260503011600 17 57 3.2 9.7 0.00 0.00 0.00 37 1015.5
20260503011526 17 58 3.2 9.7 0.00 0.00 0.00 37 1013.3
20260503010054 18 21 4.8 16.1 0.00 0.00 0.00 35 1015.7
20260503010026 18 355 6.4 14.5 0.00 0.00 0.00 35 1013.3
20260503004543 18 21 4.8 12.9 0.00 0.00 0.00 33 1015.5
20260503004509 18 360 4.8 12.9 0.00 0.00 0.00 33 1013.2
20260503003107 19 34 8.0 19.3 0.00 0.00 0.00 33 1013.2
20260503003058 19 49 8.0 19.3 0.00 0.00 0.00 32 1015.5
20260503003003 19 41 9.7 19.3 0.00 0.00 0.00 33 1013.2
20260503001552 19 74 4.8 16.1 0.00 0.00 0.00 34 1013.3
20260503001546 19 83 4.8 20.9 0.00 0.00 0.00 32 1015.6
20260503000103 20 313 6.4 19.3 0.00 0.00 0.00 29 1015.5
20260503000100 20 291 8.0 19.3 0.00 0.00 0.00 30 1013.3
20260502234550 21 338 4.8 12.9 0.00 0.00 0.00 24 1013.3
20260502234548 21 328 4.8 12.9 0.00 0.00 0.00 24 1015.7
20260502233047 20 55 4.8 17.7 0.00 0.00 0.00 25 1015.9
20260502233045 20 336 4.8 17.7 0.00 0.00 0.00 25 1013.4
20260502231553 21 331 4.8 16.1 0.00 0.00 0.00 26 1016.0
20260502231544 21 315 4.8 16.1 0.00 0.00 0.00 27 1013.5
20260502230047 20 9 3.2 12.9 0.00 0.00 0.00 27 1016.3
20260502230036 20 355 3.2 12.9 0.00 0.00 0.00 28 1013.7
20260502224547 21 347 3.2 14.5 0.00 0.00 0.00 27 1016.4
20260502224506 21 234 4.8 14.5 0.00 0.00 0.00 28 1013.9
20260502223051 21 213 4.8 17.7 0.00 0.00 0.00 27 1016.6
20260502223010 21 294 4.8 16.1 0.00 0.00 0.00 28 1014.0
20260502221555 20 292 8.0 17.7 0.00 0.00 0.00 30 1014.3
20260502221548 20 352 9.7 17.7 0.00 0.00 0.00 30 1016.7
20260502220053 20 307 4.8 14.5 0.00 0.00 0.00 27 1014.4
20260502220051 20 283 4.8 14.5 0.00 0.00 0.00 25 1016.9
20260502214547 19 24 3.2 14.5 0.00 0.00 0.00 27 1014.6
20260502214544 19 48 3.2 14.5 0.00 0.00 0.00 27 1017.0
20260502213047 18 72 3.2 6.4 0.00 0.00 0.00 28 1017.2
20260502213038 18 20 3.2 6.4 0.00 0.00 0.00 28 1014.7
20260502211553 19 200 1.6 8.0 0.00 0.00 0.00 27 1017.3
20260502211547 19 198 1.6 4.8 0.00 0.00 0.00 27 1014.8
20260502210047 20 224 1.6 11.3 0.00 0.00 0.00 28 1017.4
20260502210033 20 244 1.6 8.0 0.00 0.00 0.00 28 1014.9
20260502204548 19 352 1.6 11.3 0.00 0.00 0.00 29 1017.5
20260502204528 19 340 3.2 11.3 0.00 0.00 0.00 29 1015.1
20260502203047 20 273 3.2 14.5 0.00 0.00 0.00 27 1017.6
20260502203020 20 287 4.8 14.5 0.00 0.00 0.00 27 1015.1
20260502201554 20 205 6.4 16.1 0.00 0.00 0.00 28 1015.3
20260502201548 20 292 6.4 16.1 0.00 0.00 0.00 27 1017.8
20260502200047 18 30 4.8 14.5 0.00 0.00 0.00 30 1017.9
20260502200043 18 25 3.2 14.5 0.00 0.00 0.00 30 1015.4
20260502194549 18 326 1.6 14.5 0.00 0.00 0.00 28 1018.3
20260502194532 18 326 1.6 14.5 0.00 0.00 0.00 29 1015.8
20260502193046 19 30 4.8 12.9 0.00 0.00 0.00 28 1018.5
20260502193006 19 31 4.8 9.7 0.00 0.00 0.00 29 1016.0
20260502191555 18 213 1.6 12.9 0.00 0.00 0.00 31 1018.5
20260502191539 18 212 3.2 9.7 0.00 0.00 0.00 31 1016.1
20260502190047 17 0 1.6 8.0 0.00 0.00 0.00 32 1018.7
20260502190036 17 166 1.6 8.0 0.00 0.00 0.00 32 1016.4
20260502184547 17 28 4.8 12.9 0.00 0.00 0.00 30 1018.7
20260502184526 17 52 4.8 9.7 0.00 0.00 0.00 35 1016.4
20260502183049 17 355 1.6 6.4 0.00 0.00 0.00 39 1016.7
20260502183046 17 360 1.6 12.9 0.00 0.00 0.00 38 1018.9
20260502181550 17 360 3.2 12.9 0.00 0.00 0.00 39 1019.1
20260502181533 17 26 4.8 12.9 0.00 0.00 0.00 40 1016.9
20260502163057 14 55 8.0 17.7 0.00 0.00 0.00 46 1019.6
20260502163035 14 58 8.0 17.7 0.00 0.00 0.00 46 1017.3
20260502161549 14 9 4.8 14.5 0.00 0.00 0.00 48 1019.5
20260502161536 14 9 4.8 14.5 0.00 0.00 0.00 48 1017.3
20260502151549 12 336 1.6 8.0 0.00 0.00 0.00 55 1019.5
20260502151503 12 345 1.6 8.0 0.00 0.00 0.00 56 1017.4
20260502150107 10 26 0.0 3.2 0.00 0.00 0.00 69 1017.5
20260502123056 1 0 0.0 4.8 0.00 0.00 0.00 89 1019.2
20260502121545 1 55 0.0 6.4 0.00 0.00 0.00 90 1019.2
20260502121523 1 45 0.0 4.8 0.00 0.00 0.00 90 1017.5
20260502114544 1 0 0.0 4.8 0.00 0.00 0.00 89 1019.4
20260502114541 1 173 0.0 4.8 0.00 0.00 0.00 89 1017.4
20260502113046 1 110 0.0 3.2 0.00 0.00 0.00 88 1019.3
20260502113041 1 110 0.0 3.2 0.00 0.00 0.00 88 1017.6
20260502111551 1 0 0.0 3.2 0.00 0.00 0.00 87 1019.1
20260502111504 1 110 0.0 3.2 0.00 0.00 0.00 87 1017.5
20260502110046 1 0 1.6 3.2 0.00 0.00 0.00 87 1018.9
20260502110028 1 110 1.6 3.2 0.00 0.00 0.00 88 1017.3
20260502104546 1 110 0.0 3.2 0.00 0.00 0.00 88 1018.9
20260502104520 1 110 1.6 3.2 0.00 0.00 0.00 89 1017.2
20260502103050 1 110 0.0 1.6 0.00 0.00 0.00 88 1017.1
20260502103045 1 0 0.0 1.6 0.00 0.00 0.00 87 1018.8
20260502101548 1 0 0.0 3.2 0.00 0.00 0.00 88 1018.6
20260502080103 4 110 1.6 3.2 0.00 0.00 0.00 76 1018.7
20260502071522 5 110 1.6 3.2 0.00 0.00 0.00 74 1017.2
20260502070047 5 110 1.6 3.2 0.00 0.00 0.00 72 1018.7
20260502070020 5 110 1.6 3.2 0.00 0.00 0.00 72 1017.2
20260502064551 6 110 0.0 3.2 0.00 0.00 0.00 70 1017.2
20260502064548 6 110 0.0 3.2 0.00 0.00 0.00 69 1018.6
20260502063102 6 110 0.0 3.2 0.00 0.00 0.00 72 1017.0
20260502063100 6 110 0.0 4.8 0.00 0.00 0.00 71 1018.5
20260502061550 5 110 0.0 3.2 0.00 0.00 0.00 72 1018.5
20260502061525 5 110 0.0 3.2 0.00 0.00 0.00 73 1017.0